Theta_e
313 312 312 312 311 309 309 310 302 313 309 301 297 297 303 307 313 316 317 314 313 308 308 307 306 307 309 316 315 308 306 300 297 300 303 307 301 298 296 291 289 289 288 289
312 312 311 312 311 309 307 307 307 316 309 297 296 300 305 307 312 313 314 314 313 313 307 302 307 311 315 315 313 305 305 297 292 295 295 302 302 301 297 294 292 289 288 290
312 312 311 311 311 310 306 308 308 315 304 301 298 297 299 302 314 314 315 314 314 310 307 309 306 309 316 318 314 318 312 301 296 293 294 297 298 300 298 294 288 289 291 293
312 312 312 312 311 310 308 311 307 314 307 307 303 299 305 306 308 314 314 310 311 308 304 307 307 312 313 315 316 312 304 296 300 302 304 304 303 301 298 294 292 290 292 297
312 312 312 312 311 309 315 315 316 319 312 310 309 306 306 309 310 311 310 308 312 313 307 308 304 309 307 307 309 307 305 297 301 300 304 305 300 304 299 300 301 300 301 299
312 312 312 312 312 310 311 316 322 317 308 307 306 308 311 312 313 314 316 314 312 309 311 312 309 311 310 309 307 305 304 300 298 295 302 302 295 302 302 301 303 301 295 299
312 312 312 312 312 311 308 313 319 313 306 308 309 313 314 312 312 309 314 315 310 315 319 314 309 309 309 310 308 308 303 301 299 296 298 289 301 309 308 303 303 302 300 299
311 312 312 313 313 313 306 310 320 316 309 311 311 311 310 312 312 312 313 314 318 318 314 305 302 303 303 307 311 309 307 304 297 293 291 298 304 309 306 300 299 302 298 297
312 312 312 313 313 313 309 309 317 319 309 308 314 311 310 306 306 309 314 317 318 314 310 305 298 297 299 299 304 310 306 306 301 295 290 290 301 311 312 304 292 300 298 296
312 312 313 313 313 313 309 309 317 313 307 311 315 309 311 314 310 307 312 312 311 311 304 301 297 297 303 296 297 298 300 300 297 292 293 297 307 310 311 291 293 299 298 296
311 312 313 313 313 314 310 310 319 320 314 314 316 320 315 316 314 308 312 308 309 306 303 302 299 296 298 296 300 299 300 297 295 295 291 291 309 307 299 300 298 298 297 297
310 311 312 313 313 313 313 313 324 328 321 318 321 322 325 321 321 317 315 312 312 310 305 302 300 300 299 297 294 305 301 300 297 297 297 305 306 304 305 301 298 298 297 298
310 311 312 313 313 313 312 307 311 325 318 317 317 315 322 325 323 324 314 318 320 316 316 307 304 300 301 296 296 301 305 306 301 301 302 302 302 301 300 300 298 300 300 300
310 310 311 312 313 313 313 309 316 321 320 310 313 322 318 325 324 322 321 317 318 315 310 308 305 301 305 299 301 301 304 303 301 299 300 302 302 301 300 300 300 300 299 299
310 311 312 312 312 312 311 309 311 318 316 311 309 314 317 316 321 322 321 315 312 310 308 305 305 304 301 306 304 299 303 299 296 294 300 300 300 300 302 300 299 300 299 298
310 312 312 311 311 311 313 317 320 316 319 312 305 313 314 315 313 313 311 310 310 308 305 306 306 306 303 298 297 303 305 303 302 299 300 300 301 302 303 301 301 301 300 299
310 310 310 310 310 309 317 316 318 312 321 313 307 306 313 315 312 312 311 312 308 308 304 305 305 306 303 299 296 304 309 308 303 303 302 299 301 300 302 302 303 303 301 300
309 309 310 310 310 310 312 320 311 312 317 314 305 307 309 312 308 307 310 311 310 311 309 310 309 308 301 298 302 306 309 310 304 304 303 301 301 301 301 302 301 300 299 300
309 310 310 312 312 311 316 317 314 319 311 307 306 303 303 310 307 308 306 307 307 310 308 306 304 302 301 303 305 307 310 306 304 304 303 302 302 302 302 301 301 299 298 298
310 314 312 308 315 318 318 315 309 313 313 310 304 306 307 309 304 302 305 306 307 301 303 306 301 300 306 308 310 309 310 312 311 301 300 301 301 302 304 302 302 301 299 298
310 309 311 314 315 314 312 308 305 305 304 306 306 304 302 307 303 300 303 300 302 300 302 301 298 296 303 308 310 310 308 308 308 306 305 306 304 304 303 302 303 302 300 301
306 305 307 312 309 303 303 300 304 304 301 305 303 304 306 307 306 303 305 303 304 301 308 301 295 299 304 308 310 311 307 307 307 307 307 307 307 307 303 303 303 303 304 304
309 312 307 303 302 295 301 298 300 300 304 303 302 301 304 306 306 302 303 301 300 307 302 297 298 302 306 307 310 308 307 307 307 307 308 311 311 311 309 306 305 304 303 305
313 302 292 299 299 300 300 302 302 304 303 301 300 299 300 302 303 303 302 302 304 298 294 295 300 303 305 308 311 307 306 307 306 307 309 311 309 307 308 308 307 306 306 306
305 303 294 300 301 301 302 303 302 304 303 302 301 298 300 300 302 302 302 301 297 296 296 299 304 307 308 309 307 307 307 307 306 307 309 308 308 306 305 306 307 307 307 306
306 303 300 301 302 301 302 302 301 304 304 304 301 299 299 299 301 300 298 296 294 297 300 304 305 307 309 307 307 308 308 308 306 306 306 306 306 305 304 306 306 305 306 307
305 300 302 301 301 301 301 302 301 303 305 302 303 300 298 301 299 298 300 297 299 302 304 306 306 308 308 307 308 309 310 307 304 304 306 305 306 306 306 305 305 306 307 308
Wind_Speed
17 17 17 18 19 24 4 1 4 4 3 6 2 3 6 4 3 1 1 2 2 3 2 3 2 3 5 3 3 3 3 5 1 5 4 4 3 2 4 5 3 1 3 8
17 16 17 17 16 13 3 2 2 3 4 3 1 4 4 4 5 5 4 1 5 2 5 2 4 2 6 1 3 1 1 3 4 9 7 7 3 3 3 4 3 4 4 8
17 16 17 17 15 10 0 3 4 4 5 2 4 3 3 4 5 3 4 5 2 1 4 4 2 3 1 3 4 6 3 3 5 5 6 3 6 6 2 5 3 3 6 3
16 17 18 17 14 10 0 3 1 2 3 4 2 1 2 0 1 2 4 3 6 3 7 9 4 2 1 2 2 3 5 1 2 4 7 5 8 5 2 2 3 3 6 5
16 16 17 18 15 9 2 3 3 4 2 2 4 5 3 1 1 1 2 7 7 5 4 6 14 3 1 4 3 3 2 2 3 5 4 5 3 10 7 6 3 3 0 5
15 15 15 16 17 9 2 2 2 4 4 2 0 2 1 2 2 1 3 6 5 6 5 6 11 4 1 2 6 4 3 2 3 4 7 7 4 5 2 1 1 3 4 5
15 14 13 13 12 8 1 2 2 4 2 1 2 3 2 3 3 2 2 2 4 7 7 3 5 6 4 4 4 3 5 4 2 3 6 3 3 2 5 2 4 6 4 5
15 13 12 11 10 6 1 2 2 3 3 1 2 3 4 5 4 4 4 4 3 6 3 3 3 5 4 4 7 5 4 4 2 2 1 4 1 3 1 3 3 5 5 6
15 13 12 10 8 6 1 3 2 2 6 5 4 3 1 2 3 5 1 3 5 1 2 3 3 3 3 2 2 3 8 7 5 1 1 2 1 2 3 2 5 4 3 5
15 14 12 11 9 6 1 4 3 4 4 5 5 5 2 3 2 2 3 7 6 2 3 3 2 2 1 0 1 2 3 3 3 2 1 6 4 5 3 4 7 1 2 2
15 14 13 11 9 7 1 4 4 4 2 3 7 5 4 4 4 0 4 5 3 3 4 3 2 2 1 3 1 2 3 3 2 2 1 3 4 3 3 5 1 2 3 3
15 14 12 11 9 6 1 2 2 2 3 5 5 6 4 5 4 6 2 3 2 3 5 0 3 2 2 2 1 3 2 4 4 6 5 4 4 1 2 4 4 4 5 3
15 14 12 11 9 5 2 2 3 3 2 5 4 4 4 4 5 4 2 2 2 1 2 4 2 4 3 2 1 3 5 1 3 3 2 2 3 2 2 2 3 3 4 5
16 15 12 9 8 5 4 2 1 3 3 4 7 3 5 2 5 3 4 2 2 4 3 2 3 3 1 1 3 4 3 3 1 2 4 3 3 3 4 7 7 8 5 5
17 16 13 9 6 4 4 2 3 1 4 4 4 5 5 1 3 4 2 2 2 2 2 4 2 2 3 2 4 4 2 2 4 4 4 3 5 1 8 8 6 7 7 4
17 16 14 9 6 1 2 4 1 3 4 4 0 4 3 1 3 4 2 2 3 4 3 1 2 1 4 4 2 3 3 3 5 4 3 5 4 5 5 8 9 9 8 9
18 16 12 8 5 2 3 6 3 4 2 3 3 4 3 1 4 3 2 3 2 3 2 4 2 4 4 3 2 3 5 6 4 5 7 2 4 7 9 8 10 9 7 7
17 13 9 7 5 6 3 2 7 4 4 3 3 3 4 2 1 2 2 2 3 6 3 2 3 3 3 3 3 5 6 7 3 4 5 4 2 3 7 5 2 5 7 5
15 11 4 1 2 1 3 6 8 1 4 3 2 4 3 2 2 1 3 3 4 3 3 2 4 3 4 4 4 6 4 5 5 4 2 3 5 8 8 7 7 7 7 5
8 2 4 2 3 4 6 5 4 4 4 3 2 1 1 3 2 2 2 1 3 3 2 2 4 1 3 4 6 7 8 7 4 5 3 5 5 7 6 10 9 8 8 7
4 3 1 4 7 4 4 2 2 1 3 2 1 2 1 2 2 3 1 2 1 4 2 4 3 2 4 4 7 6 7 3 4 7 9 5 5 7 7 6 8 7 7 7
1 1 2 3 5 4 3 1 2 4 2 3 2 2 3 3 3 3 1 3 2 3 3 4 1 5 4 2 5 7 6 5 5 4 5 3 3 6 5 5 6 7 7 7
1 1 4 5 2 8 2 1 2 2 1 2 3 2 1 4 4 3 3 4 2 2 3 2 5 3 4 2 3 5 5 5 5 6 4 5 1 2 2 3 4 6 7 7
3 3 5 3 2 1 3 4 4 4 2 1 1 2 1 1 3 1 3 1 4 2 2 4 3 5 2 2 3 4 6 7 7 8 5 1 4 5 5 4 4 4 6 7
3 3 0 0 1 1 1 2 2 1 2 2 2 2 2 2 3 3 3 3 2 2 4 4 5 5 3 4 5 7 6 6 6 4 4 5 5 5 5 5 4 4 5 6
2 3 4 2 5 4 3 2 2 2 0 2 3 2 3 3 3 4 2 2 2 3 4 4 2 3 5 7 8 8 6 7 7 7 7 7 6 7 5 3 4 1 3 6
3 1 2 3 4 4 3 3 3 0 3 2 2 3 1 2 4 3 1 3 3 3 3 2 4 6 8 8 7 7 8 7 7 6 7 7 5 4 3 3 6 5 4 3
Wind_Direction
329 333 338 334 335 332 83 48 62 318 74 64 19 165 203 227 183 167 119 114 119 303 166 133 228 282 211 32 360 319 320 134 354 225 260 279 216 207 133 124 250 227 164 269
328 333 337 335 336 357 331 73 247 346 73 122 268 275 257 233 182 188 189 3 97 104 281 166 195 193 282 255 58 165 285 14 20 339 356 3 13 269 133 105 79 201 150 266
327 336 336 334 332 329 238 82 44 359 57 124 141 233 291 276 34 120 157 149 106 110 209 277 199 245 211 313 92 63 77 102 153 208 232 210 305 295 132 137 120 214 231 259
330 339 336 333 332 343 234 38 313 200 357 350 346 252 173 279 205 22 57 74 75 3 9 353 290 293 307 99 17 73 86 28 197 250 254 267 287 308 225 77 211 169 293 226
332 339 335 331 337 343 38 88 70 10 65 319 357 352 25 36 196 187 238 139 168 151 103 189 275 200 194 241 24 87 54 289 34 299 330 330 88 20 47 63 39 44 91 272
334 338 334 332 342 340 54 314 333 105 311 4 71 252 281 293 212 232 213 200 135 109 162 297 282 218 235 151 157 149 126 105 53 283 340 327 12 344 8 101 98 277 273 278
333 330 333 333 349 17 161 248 101 90 248 111 309 330 254 247 180 192 211 110 108 233 80 27 340 46 53 76 35 107 128 92 80 282 2 359 270 258 314 103 18 353 28 39
323 327 334 330 338 340 345 289 133 120 95 133 321 283 246 290 254 188 173 290 79 18 344 84 45 334 21 15 26 35 82 94 65 98 236 294 254 245 272 68 317 344 96 92
321 329 331 326 329 326 243 257 206 112 120 249 210 236 257 275 289 313 266 341 349 152 98 89 150 207 246 338 123 72 73 66 112 102 257 256 275 354 157 68 314 356 86 121
317 330 329 328 325 326 227 272 222 97 112 253 154 222 228 133 51 270 302 339 360 11 66 83 158 204 185 120 340 351 25 22 108 105 265 294 278 288 122 56 247 348 97 102
316 324 329 326 325 336 97 269 217 117 136 270 199 204 169 148 133 204 303 16 344 24 77 119 199 135 185 66 309 186 177 126 134 81 46 319 349 339 19 209 0 106 106 135
315 321 325 325 326 339 114 301 331 153 142 231 204 229 193 180 199 128 215 220 244 215 85 102 125 105 82 161 206 15 61 170 183 164 217 255 291 131 129 155 144 170 151 159
313 316 321 325 324 321 195 269 298 57 64 332 25 294 8 133 164 175 93 286 221 43 204 155 130 94 120 106 290 68 354 101 81 60 326 285 296 328 99 120 131 132 120 131
310 312 318 320 316 308 222 226 248 101 100 120 276 310 276 282 151 144 151 210 48 89 68 109 116 103 153 132 165 104 239 33 73 355 317 332 314 47 97 79 85 91 95 148
307 308 313 314 310 289 228 265 242 235 139 192 264 303 271 31 163 203 165 127 95 105 48 53 69 110 82 19 76 3 340 184 122 216 246 183 264 181 140 130 148 164 154 190
303 304 306 310 312 296 184 26 233 204 159 98 131 287 293 238 198 178 194 112 96 83 111 124 68 147 100 84 111 275 312 298 175 187 180 185 147 170 173 161 186 197 194 202
298 296 301 310 298 202 164 184 215 138 111 90 8 328 298 171 44 355 27 49 65 100 124 55 56 15 73 92 106 311 324 307 244 155 120 124 203 203 211 203 202 203 216 218
294 298 308 299 264 263 333 264 204 160 95 76 120 272 8 16 313 315 12 57 25 13 87 37 55 12 40 62 281 286 289 296 241 221 243 219 234 182 219 240 237 229 246 245
307 301 270 119 57 67 250 114 133 91 126 148 92 140 209 8 354 302 19 75 77 260 62 345 68 337 46 244 269 300 294 261 203 163 137 165 183 213 229 234 255 237 254 230
308 108 57 346 236 296 95 14 33 30 345 41 100 206 239 92 22 326 96 19 127 84 284 51 62 252 271 266 260 270 269 260 281 284 254 219 222 218 232 224 230 224 225 223
41 45 191 259 309 63 37 48 93 329 35 4 247 160 208 299 117 223 163 159 94 84 243 97 6 287 250 306 336 348 24 29 305 248 257 264 222 215 244 261 266 252 227 222
188 244 275 303 38 42 82 357 351 52 166 323 109 247 201 288 101 97 30 99 83 116 170 101 226 252 252 312 323 330 333 335 346 349 7 346 242 271 242 259 238 229 221 245
165 55 50 53 328 47 118 114 349 43 315 328 352 326 334 358 47 75 96 87 93 72 51 194 222 253 267 275 338 296 279 307 323 322 314 286 295 18 315 318 301 265 259 268
76 80 2 129 298 167 176 158 172 231 146 180 167 286 98 345 40 129 101 170 94 74 108 236 243 227 242 302 279 285 291 323 314 310 322 264 250 284 309 290 281 314 311 297
85 94 51 133 205 34 109 151 84 281 183 114 41 28 77 350 76 28 76 58 66 173 209 231 229 216 220 266 266 265 282 287 291 276 283 278 269 269 283 291 290 300 295 301
72 57 72 340 68 353 14 11 291 262 120 93 60 77 63 37 90 58 85 93 194 247 225 239 187 211 228 242 253 263 271 266 268 260 256 267 280 273 256 254 263 327 348 315
67 27 30 112 107 180 225 201 261 294 71 89 86 51 50 80 58 57 90 175 218 232 268 254 218 220 235 246 267 277 269 276 272 278 270 273 279 302 263 317 349 339 311 259